HB9EYW-6 Weather Reports


Display with metric or nautical units.
time (UTC)temp
F
wind
direction
speed
MPH
gust
MPH
rain 1hr
in
rain 24hr
in
rain mn
in
humidity
%
barometer
mb
20260903210003 72 147 0.0 1.0 0.00 0.00 0.00 37
20260903205503 72 0 0.0 0.0 0.00 0.00 0.00 36
20260903205003 72 0 0.0 0.0 0.00 0.00 0.00 36
20260903204503 72 135 0.0 1.0 0.00 0.00 0.00 35
20260903204003 72 135 0.0 1.0 0.00 0.00 0.00 35
20260903203503 72 135 0.0 1.0 0.00 0.00 0.00 34
20260903203003 73 135 0.0 2.0 0.00 0.00 0.00 34
20260903202503 73 135 0.0 2.0 0.00 0.00 0.00 33
20260903202003 73 132 0.0 2.0 0.00 0.00 0.00 33
20260903201503 73 135 0.0 2.0 0.00 0.00 0.00 32
20260903201003 73 137 0.0 2.0 0.00 0.00 0.00 32
20260903200503 74 136 0.0 2.0 0.00 0.00 0.00 30
20260903200003 74 138 0.0 2.0 0.00 0.00 0.00 30
20260903195503 74 138 0.0 1.0 0.00 0.00 0.00 30
20260903195003 74 135 0.0 1.0 0.00 0.00 0.00 29
20260903194503 75 0 0.0 0.0 0.00 0.00 0.00 29
20260903194003 75 0 0.0 0.0 0.00 0.00 0.00 28
20260903193503 75 0 0.0 0.0 0.00 0.00 0.00 27
20260903193003 75 142 0.0 2.0 0.00 0.00 0.00 27
20260903192503 76 155 0.0 2.0 0.00 0.00 0.00 26
20260903192003 76 158 0.0 2.0 0.00 0.00 0.00 26
20260903191503 76 140 0.0 2.0 0.00 0.00 0.00 26
20260903191003 76 136 0.0 2.0 0.00 0.00 0.00 25
20260903190503 77 136 0.0 2.0 0.00 0.00 0.00 25
20260903190003 77 149 0.0 2.0 0.00 0.00 0.00 25
20260903185503 77 156 0.0 1.0 0.00 0.00 0.00 24
20260903185003 77 135 0.0 1.0 0.00 0.00 0.00 24
20260903184503 77 135 0.0 1.0 0.00 0.00 0.00 24
20260903184003 78 253 0.0 1.0 0.00 0.00 0.00 23
20260903183503 78 237 0.0 2.0 0.00 0.00 0.00 22
20260903183003 78 254 0.0 2.0 0.00 0.00 0.00 22
20260903182503 78 266 0.0 2.0 0.00 0.00 0.00 21
20260903182003 79 261 0.0 2.0 0.00 0.00 0.00 21
20260903181503 79 249 0.0 2.0 0.00 0.00 0.00 20
20260903181003 79 232 0.0 2.0 0.00 0.00 0.00 20
20260903180503 80 231 0.0 2.0 0.00 0.00 0.00 19
20260903180003 80 256 0.0 2.0 0.00 0.00 0.00 19
20260903175503 80 266 1.0 3.0 0.00 0.00 0.00 18
20260903175003 80 270 1.0 3.0 0.00 0.00 0.00 18
20260903174503 80 278 1.0 3.0 0.00 0.00 0.00 18
20260903174003 81 244 1.0 3.0 0.00 0.00 0.00 17
20260903173503 81 256 1.0 4.0 0.00 0.00 0.00 17
20260903173003 81 275 1.0 5.0 0.00 0.00 0.00 16
20260903172503 81 270 1.0 5.0 0.00 0.00 0.00 16
20260903172003 81 266 2.0 6.0 0.00 0.00 0.00 16
20260903171503 81 292 1.0 7.0 0.00 0.00 0.00 15
20260903171003 82 310 1.0 7.0 0.00 0.00 0.00 16
20260903170503 82 301 3.0 7.0 0.00 0.00 0.00 14
20260903170003 82 275 3.0 8.0 0.00 0.00 0.00 14
20260903165503 82 268 2.0 8.0 0.00 0.00 0.00 15
20260903165003 83 275 2.0 4.0 0.00 0.00 0.00 15
20260903164503 83 257 2.0 8.0 0.00 0.00 0.00 15
20260903164003 83 260 2.0 8.0 0.00 0.00 0.00 14
20260903163503 83 280 3.0 6.0 0.00 0.00 0.00 14
20260903163003 83 276 2.0 6.0 0.00 0.00 0.00 14
20260903162503 83 269 1.0 8.0 0.00 0.00 0.00 13
20260903162003 84 268 2.0 11.0 0.00 0.00 0.00 13
20260903161503 85 257 2.0 11.0 0.00 0.00 0.00 12
20260903161003 86 231 2.0 6.0 0.00 0.00 0.00 10
20260903160503 87 223 3.0 7.0 0.00 0.00 0.00 10
20260903160003 87 228 3.0 7.0 0.00 0.00 0.00 10
20260903155503 87 227 2.0 6.0 0.00 0.00 0.00 10
20260903155003 88 124 2.0 6.0 0.00 0.00 0.00 10
20260903154503 88 16 2.0 6.0 0.00 0.00 0.00 10
20260903154003 87 292 3.0 7.0 0.00 0.00 0.00 10
20260903153503 87 268 2.0 8.0 0.00 0.00 0.00 10
20260903153003 88 260 3.0 8.0 0.00 0.00 0.00 10
20260903152503 88 250 2.0 8.0 0.00 0.00 0.00 10
20260903152003 87 282 1.0 8.0 0.00 0.00 0.00 10
20260903151503 87 299 2.0 8.0 0.00 0.00 0.00 10
20260903151003 87 308 4.0 8.0 0.00 0.00 0.00 10
20260903150503 88 305 3.0 8.0 0.00 0.00 0.00 10
20260903150003 88 274 3.0 8.0 0.00 0.00 0.00 10
20260903145503 88 260 0.0 6.0 0.00 0.00 0.00 10
20260903145003 88 289 3.0 6.0 0.00 0.00 0.00 10
20260903144503 89 306 2.0 5.0 0.00 0.00 0.00 10
20260903144003 89 261 2.0 4.0 0.00 0.00 0.00 10
20260903143503 89 74 2.0 9.0 0.00 0.00 0.00 10
20260903143003 89 349 2.0 9.0 0.00 0.00 0.00 10
20260903142503 89 277 4.0 9.0 0.00 0.00 0.00 10
20260903142003 89 239 1.0 9.0 0.00 0.00 0.00 10
20260903141503 89 253 2.0 7.0 0.00 0.00 0.00 10
20260903141003 89 268 2.0 7.0 0.00 0.00 0.00 10
20260903140503 89 264 3.0 7.0 0.00 0.00 0.00 10
20260903140003 89 259 3.0 7.0 0.00 0.00 0.00 10
20260903135503 88 281 1.0 8.0 0.00 0.00 0.00 10
20260903135003 88 275 1.0 8.0 0.00 0.00 0.00 10
20260903134503 88 235 3.0 8.0 0.00 0.00 0.00 10
20260903134003 89 219 2.0 6.0 0.00 0.00 0.00 10
20260903133503 88 240 1.0 7.0 0.00 0.00 0.00 10
20260903133003 88 226 2.0 7.0 0.00 0.00 0.00 10
20260903132503 88 250 2.0 7.0 0.00 0.00 0.00 10
20260903132003 88 297 2.0 8.0 0.00 0.00 0.00 10
20260903131503 88 302 3.0 8.0 0.00 0.00 0.00 10
20260903131003 89 302 2.0 4.0 0.00 0.00 0.00 10
20260903130503 87 309 2.0 14.0 0.00 0.00 0.00 10
20260903130003 87 302 2.0 14.0 0.00 0.00 0.00 10
20260903125503 89 276 2.0 7.0 0.00 0.00 0.00 10
20260903125003 89 294 1.0 6.0 0.00 0.00 0.00 10
20260903124503 88 314 2.0 8.0 0.00 0.00 0.00 10
20260903124003 87 299 0.0 9.0 0.00 0.00 0.00 10
20260903123503 87 283 1.0 9.0 0.00 0.00 0.00 10
20260903123003 87 306 2.0 8.0 0.00 0.00 0.00 10
20260903122503 87 303 2.0 8.0 0.00 0.00 0.00 10
20260903122003 87 278 2.0 11.0 0.00 0.00 0.00 10
20260903121503 86 282 1.0 11.0 0.00 0.00 0.00 10
20260903121003 87 272 4.0 6.0 0.00 0.00 0.00 10
20260903120503 85 269 2.0 5.0 0.00 0.00 0.00 10
20260903120003 85 263 2.0 8.0 0.00 0.00 0.00 10
20260903115503 85 280 2.0 8.0 0.00 0.00 0.00 10
20260903115003 85 288 3.0 8.0 0.00 0.00 0.00 10
20260903114503 85 286 2.0 7.0 0.00 0.00 0.00 10
20260903114003 85 303 2.0 8.0 0.00 0.00 0.00 10
20260903113503 85 294 1.0 8.0 0.00 0.00 0.00 10
20260903113003 86 279 1.0 8.0 0.00 0.00 0.00 10
20260903112503 86 245 2.0 8.0 0.00 0.00 0.00 10
20260903112003 85 278 1.0 8.0 0.00 0.00 0.00 11
20260903111503 85 303 2.0 7.0 0.00 0.00 0.00 10
20260903111003 86 135 4.0 6.0 0.00 0.00 0.00 10
20260903110503 86 162 2.0 4.0 0.00 0.00 0.00 11
20260903110003 86 259 2.0 4.0 0.00 0.00 0.00 11
20260903105503 85 282 1.0 5.0 0.00 0.00 0.00 12
20260903105003 84 282 0.0 5.0 0.00 0.00 0.00 13
20260903104503 83 247 1.0 5.0 0.00 0.00 0.00 14
20260903104003 83 281 3.0 8.0 0.00 0.00 0.00 13
20260903103503 83 301 3.0 8.0 0.00 0.00 0.00 14
20260903103003 83 310 2.0 7.0 0.00 0.00 0.00 13
20260903102503 83 295 4.0 7.0 0.00 0.00 0.00 13
20260903102003 83 253 2.0 7.0 0.00 0.00 0.00 13
20260903101503 83 236 3.0 6.0 0.00 0.00 0.00 13
20260903101003 83 235 2.0 4.0 0.00 0.00 0.00 14
20260903100503 82 254 2.0 6.0 0.00 0.00 0.00 15
20260903100003 82 307 2.0 6.0 0.00 0.00 0.00 15
20260903095503 82 289 2.0 5.0 0.00 0.00 0.00 14
20260903095003 83 287 2.0 4.0 0.00 0.00 0.00 15
20260903094503 83 308 1.0 3.0 0.00 0.00 0.00 16
20260903094003 83 287 2.0 3.0 0.00 0.00 0.00 18
20260903093503 83 268 0.0 3.0 0.00 0.00 0.00 19
20260903093003 83 266 0.0 3.0 0.00 0.00 0.00 19
20260903092503 83 271 0.0 2.0 0.00 0.00 0.00 23
20260903092003 82 275 0.0 2.0 0.00 0.00 0.00 22
20260903091503 81 294 0.0 2.0 0.00 0.00 0.00 25
20260903091003 80 313 0.0 2.0 0.00 0.00 0.00 26
20260903090503 78 327 0.0 2.0 0.00 0.00 0.00 31
20260903090003 78 338 0.0 2.0 0.00 0.00 0.00 31
20260903085503 78 284 0.0 2.0 0.00 0.00 0.00 32
20260903085003 77 281 0.0 2.0 0.00 0.00 0.00 32
20260903084503 77 240 0.0 2.0 0.00 0.00 0.00 34
20260903084004 76 253 0.0 2.0 0.00 0.00 0.00 35
20260903083503 76 224 0.0 3.0 0.00 0.00 0.00 36
20260903083003 76 75 0.0 3.0 0.00 0.00 0.00 37
20260903082503 75 10 2.0 3.0 0.00 0.00 0.00 38
20260903082003 74 138 0.0 2.0 0.00 0.00 0.00 41
20260903081503 73 137 0.0 2.0 0.00 0.00 0.00 41
20260903081003 73 204 0.0 2.0 0.00 0.00 0.00 41
20260903080503 72 130 0.0 1.0 0.00 0.00 0.00 44
20260903080003 72 140 0.0 1.0 0.00 0.00 0.00 44
20260903075503 72 188 0.0 2.0 0.00 0.00 0.00 46
20260903075003 71 182 0.0 2.0 0.00 0.00 0.00 47
20260903074503 70 146 1.0 3.0 0.00 0.00 0.00 48
20260903074003 70 134 1.0 3.0 0.00 0.00 0.00 50
20260903073503 69 129 0.0 2.0 0.00 0.00 0.00 51
20260903073003 69 147 1.0 2.0 0.00 0.00 0.00 53
20260903072503 68 131 1.0 2.0 0.00 0.00 0.00 55
20260903072003 68 74 0.0 2.0 0.00 0.00 0.00 56
20260903071503 67 90 0.0 4.0 0.00 0.00 0.00 57
20260903071003 67 81 1.0 4.0 0.00 0.00 0.00 57
20260903070503 66 79 1.0 2.0 0.00 0.00 0.00 62
20260903070003 66 130 1.0 3.0 0.00 0.00 0.00 62
20260903065503 65 120 0.0 3.0 0.00 0.00 0.00 63
20260903065003 65 116 1.0 3.0 0.00 0.00 0.00 63
20260903064503 64 129 1.0 3.0 0.00 0.00 0.00 64
20260903064003 64 128 1.0 3.0 0.00 0.00 0.00 65
20260903063503 64 120 1.0 5.0 0.00 0.00 0.00 66
20260903063003 63 116 0.0 5.0 0.00 0.00 0.00 66
20260903062503 63 121 1.0 4.0 0.00 0.00 0.00 67
20260903062003 63 131 0.0 4.0 0.00 0.00 0.00 68
20260903061503 62 135 0.0 2.0 0.00 0.00 0.00 68
20260903061003 62 135 0.0 2.0 0.00 0.00 0.00 69
20260903060503 62 135 0.0 2.0 0.00 0.00 0.00 69
20260903060003 62 157 0.0 2.0 0.00 0.00 0.00 69
20260903055503 61 179 0.0 2.0 0.00 0.00 0.00 70
20260903055003 61 180 0.0 2.0 0.00 0.00 0.00 70
20260903054503 61 180 0.0 2.0 0.00 0.00 0.00 70
20260903054003 61 180 0.0 2.0 0.00 0.00 0.00 71
20260903053503 61 180 0.0 2.0 0.00 0.00 0.00 71
20260903053003 61 180 0.0 2.0 0.00 0.00 0.00 71
20260903052503 60 158 0.0 2.0 0.00 0.00 0.00 71
20260903052003 60 136 0.0 2.0 0.00 0.00 0.00 71
20260903051503 60 135 0.0 3.0 0.00 0.00 0.00 71
20260903051003 60 135 0.0 3.0 0.00 0.00 0.00 70
20260903050503 60 139 0.0 2.0 0.00 0.00 0.00 69
20260903050003 60 147 0.0 2.0 0.00 0.00 0.00 69
20260903045503 60 141 1.0 2.0 0.00 0.00 0.00 68
20260903045003 60 130 0.0 2.0 0.00 0.00 0.00 67
20260903044503 60 126 0.0 2.0 0.00 0.00 0.00 67
20260903044003 60 130 1.0 2.0 0.00 0.00 0.00 67
20260903043503 60 135 0.0 2.0 0.00 0.00 0.00 67
20260903043003 60 135 0.0 2.0 0.00 0.00 0.00 67
20260903042503 60 0 0.0 0.0 0.00 0.00 0.00 67
20260903042003 60 0 0.0 0.0 0.00 0.00 0.00 66
20260903041503 60 0 0.0 0.0 0.00 0.00 0.00 66
20260903041003 61 0 0.0 0.0 0.00 0.00 0.00 66
20260903040503 61 0 0.0 0.0 0.00 0.00 0.00 66
20260903040003 61 135 0.0 2.0 0.00 0.00 0.00 66
20260903035503 61 135 0.0 2.0 0.00 0.00 0.00 67
20260903035003 61 0 0.0 0.0 0.00 0.00 0.00 66
20260903034503 60 135 0.0 2.0 0.00 0.00 0.00 66
20260903034003 60 135 0.0 2.0 0.00 0.00 0.00 64
20260903033503 61 135 1.0 2.0 0.00 0.00 0.00 64
20260903033003 61 135 0.0 2.0 0.00 0.00 0.00 64
20260903032503 61 135 0.0 2.0 0.00 0.00 0.00 63
20260903032003 61 135 0.0 2.0 0.00 0.00 0.00 63
20260903031503 62 135 0.0 2.0 0.00 0.00 0.00 63
20260903031003 62 135 0.0 2.0 0.00 0.00 0.00 63
20260903030503 62 0 0.0 0.0 0.00 0.00 0.00 63
20260903030003 62 0 0.0 0.0 0.00 0.00 0.00 63
20260903025503 62 0 0.0 0.0 0.00 0.00 0.00 62
20260903025003 62 135 0.0 1.0 0.00 0.00 0.00 62
20260903024503 62 135 0.0 2.0 0.00 0.00 0.00 62
20260903024003 62 135 0.0 2.0 0.00 0.00 0.00 61
20260903023503 62 135 0.0 2.0 0.00 0.00 0.00 61
20260903023003 62 143 0.0 2.0 0.00 0.00 0.00 61
20260903022503 62 150 0.0 1.0 0.00 0.00 0.00 61
20260903022003 62 141 0.0 1.0 0.00 0.00 0.00 61
20260903021503 63 135 0.0 2.0 0.00 0.00 0.00 61
20260903021003 62 135 0.0 2.0 0.00 0.00 0.00 61
20260903020503 63 133 0.0 2.0 0.00 0.00 0.00 61
20260903020003 63 131 0.0 2.0 0.00 0.00 0.00 61
20260903015503 63 199 0.0 2.0 0.00 0.00 0.00 61
20260903015003 63 169 0.0 2.0 0.00 0.00 0.00 61
20260903014503 63 138 0.0 2.0 0.00 0.00 0.00 61
20260903014003 63 135 0.0 2.0 0.00 0.00 0.00 61
20260903013503 63 139 0.0 2.0 0.00 0.00 0.00 61
20260903013003 63 141 0.0 2.0 0.00 0.00 0.00 60
20260903012503 63 142 0.0 2.0 0.00 0.00 0.00 61
20260903012003 64 0 0.0 0.0 0.00 0.00 0.00 61
20260903011503 63 0 0.0 0.0 0.00 0.00 0.00 60
20260903011003 64 0 0.0 0.0 0.00 0.00 0.00 59
20260903010503 64 135 0.0 2.0 0.00 0.00 0.00 59
20260903010003 64 135 0.0 2.0 0.00 0.00 0.00 59
20260903005503 64 135 0.0 2.0 0.00 0.00 0.00 58
20260903005003 64 180 0.0 1.0 0.00 0.00 0.00 58
20260903004503 64 180 0.0 1.0 0.00 0.00 0.00 58
20260903004003 64 0 0.0 0.0 0.00 0.00 0.00 58
20260903003503 65 0 0.0 0.0 0.00 0.00 0.00 58
20260903003003 65 0 0.0 0.0 0.00 0.00 0.00 58
20260903002503 65 135 0.0 1.0 0.00 0.00 0.00 58
20260903002003 65 135 0.0 1.0 0.00 0.00 0.00 58
20260903001503 65 0 0.0 0.0 0.00 0.00 0.00 58
20260903001003 64 0 0.0 0.0 0.00 0.00 0.00 58
20260903000503 64 0 0.0 0.0 0.00 0.00 0.00 57
20260903000003 64 0 0.0 0.0 0.00 0.00 0.00 57
20260902235503 64 0 0.0 0.0 0.00 0.00 0.00 57
20260902235003 64 225 0.0 1.0 0.00 0.00 0.00 56
20260902234503 65 172 0.0 2.0 0.00 0.00 0.00 56
20260902234003 65 148 0.0 2.0 0.00 0.00 0.00 56
20260902233503 65 139 0.0 2.0 0.00 0.00 0.00 55
20260902233003 65 139 1.0 2.0 0.00 0.00 0.00 55
20260902232503 66 147 0.0 2.0 0.00 0.00 0.00 54
20260902232003 66 140 0.0 2.0 0.00 0.00 0.00 54
20260902231503 66 135 0.0 1.0 0.00 0.00 0.00 54
20260902231003 66 0 0.0 0.0 0.00 0.00 0.00 53
20260902230503 66 171 0.0 1.0 0.00 0.00 0.00 52
20260902230003 66 159 0.0 2.0 0.00 0.00 0.00 52
20260902225503 66 134 0.0 2.0 0.00 0.00 0.00 52
20260902225003 66 144 0.0 2.0 0.00 0.00 0.00 51
20260902224503 67 158 0.0 2.0 0.00 0.00 0.00 51
20260902224003 67 141 1.0 2.0 0.00 0.00 0.00 50
20260902223503 67 146 0.0 2.0 0.00 0.00 0.00 50
20260902223003 67 155 0.0 2.0 0.00 0.00 0.00 50
20260902222503 67 152 0.0 2.0 0.00 0.00 0.00 49
20260902222004 68 143 1.0 2.0 0.00 0.00 0.00 48
20260902221503 68 163 0.0 2.0 0.00 0.00 0.00 48
20260902221003 68 225 0.0 1.0 0.00 0.00 0.00 48
20260902220503 68 225 0.0 1.0 0.00 0.00 0.00 47
20260902220003 68 225 0.0 1.0 0.00 0.00 0.00 47
20260902215503 69 225 0.0 1.0 0.00 0.00 0.00 46
20260902215003 69 225 0.0 1.0 0.00 0.00 0.00 45
20260902214503 69 225 0.0 1.0 0.00 0.00 0.00 44
20260902214003 69 225 0.0 1.0 0.00 0.00 0.00 44
20260902213503 69 225 0.0 1.0 0.00 0.00 0.00 44
20260902213003 69 225 0.0 1.0 0.00 0.00 0.00 43
20260902212503 70 225 0.0 1.0 0.00 0.00 0.00 43
20260902212003 70 225 0.0 1.0 0.00 0.00 0.00 43
20260902211503 70 225 0.0 1.0 0.00 0.00 0.00 42
20260902211003 70 225 0.0 1.0 0.00 0.00 0.00 43
20260902210503 70 0 0.0 0.0 0.00 0.00 0.00 42